THAICOM 6

Last updated on Thu Nov 21 2024 00:02:42 GMT+0000 (Coordinated Universal Time)

1 39500U 14002A 24325.07688414 -.00000120 00000+0 00000+0 0 9990 2 39500 0.0835 104.0935 0002400 122.0578 299.6542 1.00269333 39701
UTC large
Height (km)
Speed (km/s)
/
Latitude / Longitude
Inclination (degrees)
Orbital Period (minutes)
Azimuth
Elevation
Range (km)
Doppler Factor

Next 0 passes for location: London (51.5072 / 0.1276)

Sorry there are no passes over London.